Parma — V2OZ9 — position and weather

sailwx.info

Track history (hours):
 
Tides and Currents Weather Stations Pressure Air Temp Water Temp Dewpoint Dewpoint Depression Visibility Wind Speed Wind Dir Waves Ship Positions

Parma

Last reported at 2014-Oct-31 07:22 UTC. Time now 2014-Oct-31 08:24 UTC.
Position N 45°44' W 005°05'.

MMSI: 279073176.

Date/timePositionNaut miles runAvg speedWind from/ knotsBaromVisibWave heightAir tempDewpointWater temp
2014-Oct-31 07:22N 45°44' W 005°05'7 8.5
2014-Oct-31 06:30N 45°50' W 005°10'8 8.4
2014-Oct-31 05:33N 45°57' W 005°16'8 7.8
2014-Oct-31 04:33N 46°04' W 005°22'10 8.2
2014-Oct-31 03:21N 46°12' W 005°29'7 8.7
2014-Oct-31 02:33N 46°18' W 005°34'8 8.3
2014-Oct-31 01:33N 46°25' W 005°41'8 8.2
2014-Oct-31 00:33N 46°32' W 005°47'323 9.1
2014-Oct-29 13:14N 51°11' W 009°53'25 8.4
2014-Oct-29 10:16N 51°30' W 010°20'40 8.3
2014-Oct-29 05:28N 52°07' W 010°43'8 8.9
2014-Oct-29 04:33N 52°12' W 010°32'9 9.2
2014-Oct-29 03:33N 52°17' W 010°20'10 9.6
2014-Oct-29 02:33N 52°23' W 010°07'10 9.9
2014-Oct-29 01:33N 52°28' W 009°54'  
2014-Oct-26 16:32N 52°28' W 009°56'1111.1
2014-Oct-26 15:33N 52°22' W 010°11'1110.8
2014-Oct-26 14:33N 52°15' W 010°25'1010.2
2014-Oct-26 13:33N 52°09' W 010°39'11 7.4
2014-Oct-26 12:07N 51°60' W 010°45'81 6.0
2014-Oct-25 22:27N 51°30' W 008°43'8 9.3
2014-Oct-25 21:33N 51°32' W 008°30'9 9.2
2014-Oct-25 20:33N 51°36' W 008°17'9 9.2
2014-Oct-25 19:33N 51°41' W 008°04'8 8.4
2014-Oct-25 18:33N 51°47' W 007°54'10 7.7
2014-Oct-25 17:17N 51°56' W 007°50'2 0.1
2014-Oct-24 16:29N 51°55' W 007°47'0 0.0
2014-Oct-24 14:20N 51°55' W 007°47'0 0.0
2014-Oct-24 12:08N 51°55' W 007°47'0 0.0
2014-Oct-24 10:23N 51°55' W 007°47'0 0.0
2014-Oct-24 09:17N 51°55' W 007°47'3 4.2
2014-Oct-24 08:32N 51°56' W 007°42'1010.2
2014-Oct-24 07:33N 51°57' W 007°26'9 9.4
2014-Oct-24 06:33N 51°58' W 007°11'9 9.2
2014-Oct-24 05:33N 51°60' W 006°56'11 9.4
2014-Oct-24 04:26N 52°01' W 006°39'11 9.6
2014-Oct-24 03:15N 52°05' W 006°22'1011.2
2014-Oct-24 02:21N 52°09' W 006°07'1012.4
2014-Oct-24 01:33N 52°18' W 006°02'95 9.3
2014-Oct-23 15:18N 53°53' W 005°59'7 9.6
2014-Oct-23 14:32N 54°00' W 006°03'  
Track history (hours):
 
Tides and Currents Weather Stations Pressure Air Temp Water Temp Dewpoint Dewpoint Depression Visibility Wind Speed Wind Dir Waves Ship Positions

Parma

Last reported at 2014-Oct-31 07:22 UTC. Time now 2014-Oct-31 08:24 UTC.
Position N 45°44' W 005°05'.

MMSI: 279073176.

Date/timePositionNaut miles runAvg speedWind from/ knotsBaromVisibWave heightAir tempDewpointWater temp
2014-Oct-31 07:22N 45°44' W 005°05'7 8.5
2014-Oct-31 06:30N 45°50' W 005°10'8 8.4
2014-Oct-31 05:33N 45°57' W 005°16'8 7.8
2014-Oct-31 04:33N 46°04' W 005°22'10 8.2
2014-Oct-31 03:21N 46°12' W 005°29'7 8.7
2014-Oct-31 02:33N 46°18' W 005°34'8 8.3
2014-Oct-31 01:33N 46°25' W 005°41'8 8.2
2014-Oct-31 00:33N 46°32' W 005°47'323 9.1
2014-Oct-29 13:14N 51°11' W 009°53'25 8.4
2014-Oct-29 10:16N 51°30' W 010°20'40 8.3
2014-Oct-29 05:28N 52°07' W 010°43'8 8.9
2014-Oct-29 04:33N 52°12' W 010°32'9 9.2
2014-Oct-29 03:33N 52°17' W 010°20'10 9.6
2014-Oct-29 02:33N 52°23' W 010°07'10 9.9
2014-Oct-29 01:33N 52°28' W 009°54'  
2014-Oct-26 16:32N 52°28' W 009°56'1111.1
2014-Oct-26 15:33N 52°22' W 010°11'1110.8
2014-Oct-26 14:33N 52°15' W 010°25'1010.2
2014-Oct-26 13:33N 52°09' W 010°39'11 7.4
2014-Oct-26 12:07N 51°60' W 010°45'81 6.0
2014-Oct-25 22:27N 51°30' W 008°43'8 9.3
2014-Oct-25 21:33N 51°32' W 008°30'9 9.2
2014-Oct-25 20:33N 51°36' W 008°17'9 9.2
2014-Oct-25 19:33N 51°41' W 008°04'8 8.4
2014-Oct-25 18:33N 51°47' W 007°54'10 7.7
2014-Oct-25 17:17N 51°56' W 007°50'2 0.1
2014-Oct-24 16:29N 51°55' W 007°47'0 0.0
2014-Oct-24 14:20N 51°55' W 007°47'0 0.0
2014-Oct-24 12:08N 51°55' W 007°47'0 0.0
2014-Oct-24 10:23N 51°55' W 007°47'0 0.0
2014-Oct-24 09:17N 51°55' W 007°47'3 4.2
2014-Oct-24 08:32N 51°56' W 007°42'1010.2
2014-Oct-24 07:33N 51°57' W 007°26'9 9.4
2014-Oct-24 06:33N 51°58' W 007°11'9 9.2
2014-Oct-24 05:33N 51°60' W 006°56'11 9.4
2014-Oct-24 04:26N 52°01' W 006°39'11 9.6
2014-Oct-24 03:15N 52°05' W 006°22'1011.2
2014-Oct-24 02:21N 52°09' W 006°07'1012.4
2014-Oct-24 01:33N 52°18' W 006°02'95 9.3
2014-Oct-23 15:18N 53°53' W 005°59'7 9.6
2014-Oct-23 14:32N 54°00' W 006°03'  

Dump ship's entire track history